Location: Newark
(42.4197°N, 2.8753°E)
Time: 11:04:29
(UTC+00:00)

ISS - Visible Passes

Search period start: 12 November 2019 00:00
Search period end: 22 November 2019 00:00
Orbit: 412 x 421 km, 51.6° (Epoch: 12 November)

Date Brightness Start Highest point End Pass type
(mag) Time Alt. Az. Time Alt. Az. Time Alt. Az.
12 Nov -1.0 04:01:35 19° E 04:01:35 19° E 04:02:45 10° ESE visible
12 Nov -2.2 05:34:31 17° W 05:36:00 22° SW 05:38:40 10° S visible
13 Nov -2.6 04:48:32 32° S 04:48:32 32° S 04:50:54 10° SSE visible
14 Nov -0.6 04:02:37 11° SE 04:02:37 11° SE 04:02:47 10° SE visible
19 Nov -1.0 18:14:50 10° S 18:14:55 10° S 18:14:55 10° S visible
20 Nov -0.6 19:01:35 10° SW 19:01:50 12° SW 19:01:50 12° SW visible
21 Nov -2.7 18:13:19 10° SSW 18:15:42 35° S 18:15:42 35° S visible
